Regional Weather Roundup
Issued by NWS

Home | Current Version | Previous Version | Text Only | Print | Product List | Glossary Off
Versions: 1 2 3 4 5 6 7 8 9 10 11 12 13 14 15 16 17 18 19 20 21 22 23 24 25 26 27 28 29 30 31 32 33 34 35 36 37 38 39 40 41 42 43 44 45 46 47 48 49 50

000
ASUS43 KBIS 261820
RWRND

NORTH DAKOTA REGIONAL WEATHER ROUNDUP
NATIONAL WEATHER SERVICE BISMARCK ND
100 PM CDT THU MAR 26 2015

NOTE: "FAIR" INDICATES FEW OR NO CLOUDS BELOW 12,000 FEET WITH NO
SIGNIFICANT WEATHER AND/OR OBSTRUCTIONS TO VISIBILITY.


NDZ001>003-009>011-017-261900-
NORTHWEST NORTH DAKOTA

CITY           SKY/WX    TMP DP  RH WIND       PRES   REMARKS
WILLISTON      PTSUNNY   40  28  62 S6        30.19F
6HR MIN TEMP:  29; 6HR MAX TEMP:  40;

MINOT          CLOUDY    34  22  61 MISG      30.24S
MINOT AFB      CLOUDY    33  24  70 E8        30.23S
$$

NDZ018>021-031>035-040>046-261900-
SOUTHWEST NORTH DAKOTA

CITY           SKY/WX    TMP DP  RH WIND       PRES   REMARKS
BISMARCK       CLOUDY    35  24  64 E12       30.23S
6HR MIN TEMP:  26; 6HR MAX TEMP:  35;

DICKINSON      CLOUDY    34  29  82 E6        30.15F
GARRISON         N/A     35  24  64 E8        30.22R
6HR MIN TEMP:  27; 6HR MAX TEMP:  36;

HETTINGER ARPT CLOUDY    32  28  85 NE13      30.17R
$$

NDZ004>008-012>016-024-026-027-054-261900-
NORTHEAST NORTH DAKOTA

CITY           SKY/WX    TMP DP  RH WIND       PRES   REMARKS
GRAND FORKS    CLOUDY    31  14  49 N18G25    30.28S WCI  19
GRND FRKS AFB  PTSUNNY   31  12  46 NE15G22   30.28S
DEVILS LAKE    SUNNY     30  14  51 NE9       30.27R
$$

NDZ022-023-025-028>030-036>039-047>053-261900-
SOUTHEAST NORTH DAKOTA

CITY           SKY/WX    TMP DP  RH WIND       PRES   REMARKS
FARGO          CLOUDY    34  13  41 N16       30.24F
6HR MIN TEMP:  19; 6HR MAX TEMP:  35;

JAMESTOWN      MOSUNNY   34  11  38 NE15      30.23F
$$



USA.gov is the U.S. government's official web portal to all federal, state and local government web resources and services.